GW1653 Weather Reports


time (UTC)temp
C
wind
direction
speed
KPH
gust
KPH
rain 1hr
cm
rain 24hr
cm
rain mn
cm
humidity
%
barometer
mb
20260504175529 21 88 4.8 19.3 0.00 0.00 0.00 32 1010.1
20260504175030 21 254 4.8 19.3 0.00 0.00 0.00 33 1010.2
20260504174543 21 252 3.2 11.3 0.00 0.00 0.00 32 1010.3
20260504174032 21 208 4.8 20.9 0.00 0.00 0.00 33 1010.3
20260504173532 21 252 4.8 22.5 0.00 0.00 0.00 33 1010.4
20260504173038 21 289 4.8 22.5 0.00 0.00 0.00 33 1010.4
20260504172529 20 244 6.4 22.5 0.00 0.00 0.00 31 1010.4
20260504172033 20 241 6.4 17.7 0.00 0.00 0.00 32 1010.5
20260504171548 20 236 8.0 22.5 0.00 0.00 0.00 32 1010.5
20260504171033 20 284 9.7 22.5 0.00 0.00 0.00 32 1010.5
20260504170530 20 235 6.4 24.1 0.00 0.00 0.00 32 1010.6
20260504151032 18 266 4.8 16.1 0.00 0.00 0.00 35 1011.9
20260504150534 18 82 4.8 17.7 0.00 0.00 0.00 35 1011.9
20260504141031 17 246 6.4 20.9 0.00 0.00 0.00 34 1012.1
20260504140531 17 242 6.4 17.7 0.00 0.00 0.00 35 1012.1
20260504130533 15 276 4.8 14.5 0.00 0.00 0.00 42 1013.0
20260504110533 5 0 0.0 1.6 0.00 0.00 0.00 76 1013.3
20260504100534 3 0 0.0 0.0 0.00 0.00 0.00 80 1013.0
20260504081537 2 0 0.0 0.0 0.00 0.00 0.00 85 1012.5
20260504081031 2 0 0.0 0.0 0.00 0.00 0.00 85 1012.6
20260504080535 2 0 0.0 0.0 0.00 0.00 0.00 84 1012.6
20260504050533 3 0 0.0 0.0 0.00 0.00 0.00 77 1012.3
20260504050105 3 0 0.0 0.0 0.00 0.00 0.00 76 1012.2
20260504045531 3 0 0.0 0.0 0.00 0.00 0.00 77 1012.3
20260504045032 3 0 0.0 0.0 0.00 0.00 0.00 77 1012.4
20260504044543 3 0 0.0 0.0 0.00 0.00 0.00 76 1012.4
20260504044033 3 0 0.0 0.0 0.00 0.00 0.00 76 1012.4
20260504043533 3 0 0.0 0.0 0.00 0.00 0.00 76 1012.3
20260504043044 3 0 0.0 0.0 0.00 0.00 0.00 76 1012.3
20260504042531 3 0 0.0 0.0 0.00 0.00 0.00 75 1012.3
20260504042033 3 0 0.0 0.0 0.00 0.00 0.00 74 1012.3
20260504041539 3 0 0.0 0.0 0.00 0.00 0.00 74 1012.3
20260504041031 3 0 0.0 0.0 0.00 0.00 0.00 74 1012.3
20260504040532 3 0 0.0 0.0 0.00 0.00 0.00 74 1012.2
20260504040046 3 0 0.0 0.0 0.00 0.00 0.00 72 1012.3
20260504035532 3 0 0.0 0.0 0.00 0.00 0.00 71 1012.2
20260504035034 4 0 0.0 0.0 0.00 0.00 0.00 71 1012.1
20260504034552 4 0 0.0 0.0 0.00 0.00 0.00 70 1012.1
20260504034033 4 0 0.0 0.0 0.00 0.00 0.00 71 1012.1
20260504033531 4 0 0.0 0.0 0.00 0.00 0.00 71 1012.0
20260504033043 4 0 0.0 0.0 0.00 0.00 0.00 71 1012.0
20260504032532 4 0 0.0 0.0 0.00 0.00 0.00 70 1011.9
20260504032033 4 0 0.0 0.0 0.00 0.00 0.00 70 1012.0
20260504031540 5 0 0.0 0.0 0.00 0.00 0.00 70 1012.0
20260504031032 5 0 0.0 0.0 0.00 0.00 0.00 68 1012.1
20260504030531 5 0 0.0 0.0 0.00 0.00 0.00 67 1011.9
20260504030049 5 0 0.0 0.0 0.00 0.00 0.00 67 1012.0
20260504025533 5 0 0.0 0.0 0.00 0.00 0.00 67 1011.9
20260504025031 5 0 0.0 0.0 0.00 0.00 0.00 65 1011.9
20260504024546 5 0 0.0 0.0 0.00 0.00 0.00 65 1011.9
20260504024031 5 0 0.0 0.0 0.00 0.00 0.00 62 1011.9
20260504023532 6 0 0.0 0.0 0.00 0.00 0.00 62 1011.9
20260504023043 6 0 0.0 0.0 0.00 0.00 0.00 62 1011.9
20260504022533 6 0 0.0 0.0 0.00 0.00 0.00 61 1011.9
20260504022031 6 0 0.0 0.0 0.00 0.00 0.00 60 1011.9
20260504021538 6 0 0.0 0.0 0.00 0.00 0.00 59 1011.8
20260504021032 6 0 0.0 0.0 0.00 0.00 0.00 56 1011.8
20260504020531 6 0 0.0 0.0 0.00 0.00 0.00 55 1011.8
20260504020046 6 0 0.0 0.0 0.00 0.00 0.00 54 1011.8
20260504015532 7 0 0.0 0.0 0.00 0.00 0.00 56 1011.8
20260504015031 7 0 0.0 0.0 0.00 0.00 0.00 55 1011.7
20260504014549 7 0 0.0 0.0 0.00 0.00 0.00 54 1011.7
20260504014032 7 0 0.0 0.0 0.00 0.00 0.00 55 1011.6
20260504013535 8 0 0.0 0.0 0.00 0.00 0.00 50 1011.5
20260504013048 8 0 0.0 0.0 0.00 0.00 0.00 49 1011.4
20260504012532 8 0 0.0 1.6 0.00 0.00 0.00 48 1011.3
20260504012032 9 0 0.0 1.6 0.00 0.00 0.00 47 1011.3
20260504011546 9 0 0.0 1.6 0.00 0.00 0.00 46 1011.3
20260504011032 10 0 0.0 1.6 0.00 0.00 0.00 45 1011.2
20260504010533 10 0 0.0 1.6 0.00 0.00 0.00 42 1011.1
20260504010041 10 0 0.0 1.6 0.00 0.00 0.00 43 1011.1
20260504005532 10 301 0.0 1.6 0.00 0.00 0.00 44 1011.0
20260504005034 10 301 0.0 1.6 0.00 0.00 0.00 44 1010.9
20260504004539 10 0 0.0 1.6 0.00 0.00 0.00 45 1010.8
20260504004031 10 301 0.0 1.6 0.00 0.00 0.00 43 1010.8
20260504003531 10 301 0.0 0.0 0.00 0.00 0.00 44 1010.7
20260504003037 10 0 0.0 0.0 0.00 0.00 0.00 44 1010.6
20260504002531 10 0 0.0 1.6 0.00 0.00 0.00 45 1010.6
20260504002030 10 0 0.0 1.6 0.00 0.00 0.00 44 1010.4
20260504001545 10 302 0.0 1.6 0.00 0.00 0.00 43 1010.5
20260504001033 10 302 0.0 1.6 0.00 0.00 0.00 44 1010.4
20260504000531 10 302 0.0 1.6 0.00 0.00 0.00 42 1010.3
20260504000047 10 0 0.0 0.0 0.00 0.00 0.00 40 1010.3
20260503235532 10 0 0.0 0.0 0.00 0.00 0.00 42 1010.2
20260503235032 11 0 0.0 0.0 0.00 0.00 0.00 40 1010.1
20260503234539 11 0 0.0 1.6 0.00 0.00 0.00 39 1010.1
20260503234034 11 0 0.0 8.0 0.00 0.00 0.00 39 1010.0
20260503233535 12 0 1.6 8.0 0.00 0.00 0.00 37 1010.0
20260503233037 12 0 0.0 3.2 0.00 0.00 0.00 35 1010.0
20260503232532 12 0 0.0 4.8 0.00 0.00 0.00 34 1009.9
20260503232032 12 287 1.6 4.8 0.00 0.00 0.00 35 1009.8
20260503231545 12 242 0.0 3.2 0.00 0.00 0.00 33 1009.9
20260503231032 13 0 0.0 3.2 0.00 0.00 0.00 34 1009.9
20260503230532 13 0 0.0 3.2 0.00 0.00 0.00 34 1009.9
20260503230059 13 259 0.0 6.4 0.00 0.00 0.00 33 1009.8
20260503225533 13 271 0.0 6.4 0.00 0.00 0.00 31 1009.8
20260503225032 14 323 1.6 6.4 0.00 0.00 0.00 31 1009.8
20260503224542 14 0 0.0 6.4 0.00 0.00 0.00 32 1009.7
20260503224033 13 278 0.0 6.4 0.00 0.00 0.00 32 1009.7
20260503223532 13 344 1.6 19.3 0.00 0.00 0.00 32 1009.7
20260503223039 13 290 3.2 19.3 0.00 0.00 0.00 31 1009.7
20260503222531 13 276 4.8 12.9 0.00 0.00 0.00 32 1009.7
20260503222035 14 143 1.6 8.0 0.00 0.00 0.00 32 1009.6
20260503221546 13 56 0.0 11.3 0.00 0.00 0.00 32 1009.6
20260503221030 13 288 3.2 11.3 0.00 0.00 0.00 31 1009.7
20260503220534 14 71 0.0 8.0 0.00 0.00 0.00 32 1009.6
20260503220044 14 128 0.0 9.7 0.00 0.00 0.00 34 1009.6
20260503215532 13 329 1.6 12.9 0.00 0.00 0.00 33 1009.7
20260503215032 13 11 3.2 12.9 0.00 0.00 0.00 32 1009.7
20260503214543 13 304 3.2 17.7 0.00 0.00 0.00 32 1009.7
20260503214032 13 322 1.6 17.7 0.00 0.00 0.00 32 1009.6
20260503213532 13 297 4.8 19.3 0.00 0.00 0.00 32 1009.8
20260503213049 13 302 3.2 19.3 0.00 0.00 0.00 33 1009.8
20260503212533 13 281 6.4 16.1 0.00 0.00 0.00 32 1009.7
20260503212032 13 272 1.6 19.3 0.00 0.00 0.00 32 1009.8
20260503211549 13 251 3.2 19.3 0.00 0.00 0.00 33 1009.7
20260503211032 13 325 8.0 19.3 0.00 0.00 0.00 32 1009.8
20260503210531 13 314 3.2 17.7 0.00 0.00 0.00 35 1009.7
20260503210045 13 358 6.4 17.7 0.00 0.00 0.00 33 1009.7
20260503205531 13 291 6.4 16.1 0.00 0.00 0.00 33 1009.7
20260503205031 13 322 1.6 9.7 0.00 0.00 0.00 35 1009.6
20260503204543 13 323 1.6 11.3 0.00 0.00 0.00 33 1009.6
20260503204036 13 282 3.2 20.9 0.00 0.00 0.00 35 1009.6
20260503203535 13 323 6.4 29.0 0.00 0.00 0.00 34 1009.6
20260503203049 12 25 6.4 29.0 0.00 0.00 0.00 36 1009.6
20260503202532 12 278 8.0 24.1 0.00 0.00 0.00 33 1009.6
20260503202033 12 9 6.4 24.1 0.00 0.00 0.00 34 1009.6
20260503201545 13 270 6.4 22.5 0.00 0.00 0.00 34 1009.5
20260503201031 13 9 4.8 22.5 0.00 0.00 0.00 34 1009.6
20260503200532 12 295 3.2 22.5 0.00 0.00 0.00 36 1009.6
20260503200055 12 18 8.0 30.6 0.00 0.00 0.00 34 1009.5
20260503195531 12 300 8.0 30.6 0.00 0.00 0.00 37 1009.5
20260503195031 12 295 8.0 22.5 0.00 0.00 0.00 35 1009.5
20260503194545 12 285 8.0 22.5 0.00 0.00 0.00 33 1009.6
20260503194032 12 176 3.2 22.5 0.00 0.00 0.00 36 1009.6
20260503193531 12 297 4.8 30.6 0.00 0.00 0.00 34 1009.5
20260503193055 12 5 8.0 30.6 0.00 0.00 0.00 35 1009.5
20260503192532 12 269 9.7 30.6 0.00 0.00 0.00 34 1009.5
20260503192033 12 297 8.0 22.5 0.00 0.00 0.00 33 1009.5
20260503191543 13 328 6.4 22.5 0.00 0.00 0.00 33 1009.5
20260503191031 13 48 4.8 12.9 0.00 0.00 0.00 34 1009.5
20260503190532 13 315 3.2 19.3 0.00 0.00 0.00 35 1009.4
20260503190044 13 320 4.8 20.9 0.00 0.00 0.00 36 1009.4
20260503185531 13 328 4.8 20.9 0.00 0.00 0.00 34 1009.4
20260503185032 13 298 3.2 22.5 0.00 0.00 0.00 34 1009.4
20260503184549 13 316 4.8 22.5 0.00 0.00 0.00 34 1009.3
20260503184031 13 51 4.8 25.7 0.00 0.00 0.00 34 1009.3
20260503183530 13 300 4.8 25.7 0.00 0.00 0.00 35 1009.4
20260503183043 13 319 11.3 25.7 0.00 0.00 0.00 31 1009.3
20260503182536 13 274 3.2 11.3 0.00 0.00 0.00 35 1009.4
20260503182032 12 311 6.4 11.3 0.00 0.00 0.00 33 1009.3
20260503181552 12 276 1.6 9.7 0.00 0.00 0.00 42 1009.4
20260503181032 12 356 1.6 11.3 0.00 0.00 0.00 36 1009.3
20260503180532 12 274 3.2 11.3 0.00 0.00 0.00 38 1009.4
20260503180049 12 311 4.8 11.3 0.00 0.00 0.00 40 1009.6